Time,TemperatureF,DewpointF,PressureIn,WindDirection,WindDirectionDegrees,WindSpeedMPH,WindSpeedGustMPH,Humidity,HourlyPrecipIn,Conditions,Clouds,dailyrainin,SoftwareType,DateUTC
2013-01-13 00:01:00,11.1,3.9,30.40,NW,312,8.0,9.0,72,0.00,,,0.00,LWC V2.00 B2112,2013-01-13 08:01:00,
2013-01-13 00:06:00,10.9,4.3,30.40,WNW,295,6.0,7.0,74,0.00,,,0.00,LWC V2.00 B2112,2013-01-13 08:06:00,
2013-01-13 00:11:00,11.2,4.3,30.40,NNW,330,8.0,10.0,73,0.00,,,0.00,LWC V2.00 B2112,2013-01-13 08:11:00,
2013-01-13 00:17:00,11.2,4.3,30.40,NW,313,8.0,11.0,73,0.00,,,0.00,LWC V2.00 B2112,2013-01-13 08:17:00,
2013-01-13 00:22:00,11.6,4.4,30.40,NW,325,8.0,10.0,72,0.00,,,0.00,LWC V2.00 B2112,2013-01-13 08:22:00,
2013-01-13 00:27:00,11.4,4.2,30.40,NNW,337,8.0,10.0,72,0.00,,,0.00,LWC V2.00 B2112,2013-01-13 08:27:00,
2013-01-13 00:32:00,11.4,3.9,30.40,WNW,295,4.0,6.0,71,0.00,,,0.00,LWC V2.00 B2112,2013-01-13 08:32:00,
2013-01-13 00:37:00,11.4,3.9,30.40,WNW,296,8.0,8.0,71,0.00,,,0.00,LWC V2.00 B2112,2013-01-13 08:37:00,
2013-01-13 00:42:00,11.1,3.6,30.39,West,280,6.0,8.0,71,0.00,,,0.00,LWC V2.00 B2112,2013-01-13 08:42:00,
2013-01-13 00:47:00,10.9,3.4,30.39,WNW,298,7.0,8.0,71,0.00,,,0.00,LWC V2.00 B2112,2013-01-13 08:47:00,
2013-01-13 00:52:00,10.7,3.5,30.39,WNW,298,7.0,8.0,72,0.00,,,0.00,LWC V2.00 B2112,2013-01-13 08:52:00,
2013-01-13 00:57:00,10.9,3.4,30.40,NW,320,4.0,6.0,71,0.00,,,0.00,LWC V2.00 B2112,2013-01-13 08:57:00,
2013-01-13 01:02:00,10.9,3.4,30.40,NW,311,2.0,8.0,71,0.00,,,0.00,LWC V2.00 B2112,2013-01-13 09:02:00,
2013-01-13 01:07:00,10.9,3.4,30.40,WNW,292,4.0,6.0,71,0.00,,,0.00,LWC V2.00 B2112,2013-01-13 09:07:00,
2013-01-13 01:12:00,10.9,3.4,30.40,WNW,298,8.0,10.0,71,0.00,,,0.00,LWC V2.00 B2112,2013-01-13 09:12:00,
2013-01-13 01:17:00,10.9,3.7,30.40,WNW,299,8.0,8.0,72,0.00,,,0.00,LWC V2.00 B2112,2013-01-13 09:17:00,
2013-01-13 01:22:00,10.9,4.0,30.40,NNW,337,4.0,9.0,73,0.00,,,0.00,LWC V2.00 B2112,2013-01-13 09:22:00,
2013-01-13 01:27:00,10.7,3.5,30.39,West,278,4.0,6.0,72,0.00,,,0.00,LWC V2.00 B2112,2013-01-13 09:27:00,
2013-01-13 01:32:00,10.5,3.9,30.39,WNW,285,4.0,6.0,74,0.00,,,0.00,LWC V2.00 B2112,2013-01-13 09:32:00,
2013-01-13 01:37:00,10.2,3.6,30.39,WNW,302,6.0,7.0,74,0.00,,,0.00,LWC V2.00 B2112,2013-01-13 09:37:00,
2013-01-13 01:42:00,10.4,3.5,30.40,NNW,333,1.0,7.0,73,0.00,,,0.00,LWC V2.00 B2112,2013-01-13 09:42:00,
2013-01-13 01:47:00,10.2,3.3,30.40,WNW,285,0.0,2.0,73,0.00,,,0.00,LWC V2.00 B2112,2013-01-13 09:47:00,
2013-01-13 01:52:00,10.4,3.8,30.40,West,281,4.0,8.0,74,0.00,,,0.00,LWC V2.00 B2112,2013-01-13 09:52:00,
2013-01-13 01:57:00,10.2,3.0,30.40,WNW,301,4.0,8.0,72,0.00,,,0.00,LWC V2.00 B2112,2013-01-13 09:57:00,
2013-01-13 02:02:00,10.4,3.5,30.40,NW,326,4.0,9.0,73,0.00,,,0.00,LWC V2.00 B2112,2013-01-13 10:02:00,
2013-01-13 02:07:00,11.2,3.4,30.40,North,359,8.0,13.0,70,0.00,,,0.00,LWC V2.00 B2112,2013-01-13 10:07:00,
2013-01-13 02:12:00,11.7,3.5,30.41,NW,318,4.0,8.0,69,0.00,,,0.00,LWC V2.00 B2112,2013-01-13 10:12:00,
2013-01-13 02:17:00,11.6,4.0,30.41,WNW,282,6.0,9.0,71,0.00,,,0.00,LWC V2.00 B2112,2013-01-13 10:17:00,
2013-01-13 02:22:00,11.6,4.0,30.41,WSW,251,1.0,4.0,71,0.00,,,0.00,LWC V2.00 B2112,2013-01-13 10:22:00,
2013-01-13 02:27:00,11.6,4.4,30.42,WSW,240,0.0,0.0,72,0.00,,,0.00,LWC V2.00 B2112,2013-01-13 10:27:00,
2013-01-13 02:32:00,11.2,4.0,30.42,WSW,240,0.0,0.0,72,0.00,,,0.00,LWC V2.00 B2112,2013-01-13 10:32:00,
2013-01-13 02:37:00,11.2,4.0,30.42,WSW,240,0.0,0.0,72,0.00,,,0.00,LWC V2.00 B2112,2013-01-13 10:37:00,
2013-01-13 02:42:00,11.2,4.3,30.44,WSW,240,0.0,0.0,73,0.00,,,0.00,LWC V2.00 B2112,2013-01-13 10:42:00,
2013-01-13 02:47:00,11.4,4.2,30.44,WSW,240,0.0,2.0,72,0.00,,,0.00,LWC V2.00 B2112,2013-01-13 10:47:00,
2013-01-13 02:52:00,11.4,4.2,30.44,WSW,240,2.0,2.0,72,0.00,,,0.00,LWC V2.00 B2112,2013-01-13 10:52:00,
2013-01-13 02:57:00,11.2,4.3,30.44,WSW,240,0.0,1.0,73,0.00,,,0.00,LWC V2.00 B2112,2013-01-13 10:57:00,
2013-01-13 03:02:00,10.9,4.3,30.44,WSW,240,0.0,0.0,74,0.00,,,0.00,LWC V2.00 B2112,2013-01-13 11:02:00,
2013-01-13 03:07:00,10.9,4.3,30.44,NW,326,2.0,6.0,74,0.00,,,0.00,LWC V2.00 B2112,2013-01-13 11:07:00,
2013-01-13 03:12:00,10.9,4.3,30.44,NW,309,1.0,4.0,74,0.00,,,0.00,LWC V2.00 B2112,2013-01-13 11:12:00,
2013-01-13 03:17:00,10.9,4.3,30.44,NW,311,0.0,1.0,74,0.00,,,0.00,LWC V2.00 B2112,2013-01-13 11:17:00,
2013-01-13 03:22:00,10.7,4.1,30.44,West,277,0.0,6.0,74,0.00,,,0.00,LWC V2.00 B2112,2013-01-13 11:22:00,
2013-01-13 03:27:00,10.7,4.1,30.43,West,280,4.0,7.0,74,0.00,,,0.00,LWC V2.00 B2112,2013-01-13 11:27:00,
2013-01-13 03:32:00,10.5,3.9,30.43,WNW,289,2.0,9.0,74,0.00,,,0.00,LWC V2.00 B2112,2013-01-13 11:32:00,
2013-01-13 03:37:00,10.5,3.9,30.43,WNW,289,1.0,2.0,74,0.00,,,0.00,LWC V2.00 B2112,2013-01-13 11:37:00,
2013-01-13 03:42:00,10.7,3.8,30.43,WNW,292,7.0,9.0,73,0.00,,,0.00,LWC V2.00 B2112,2013-01-13 11:42:00,
2013-01-13 03:47:00,10.7,3.8,30.43,NW,313,7.0,9.0,73,0.00,,,0.00,LWC V2.00 B2112,2013-01-13 11:47:00,
2013-01-13 03:52:00,10.9,4.0,30.43,WNW,301,6.0,8.0,73,0.00,,,0.00,LWC V2.00 B2112,2013-01-13 11:52:00,
2013-01-13 03:57:00,11.1,3.9,30.43,WNW,302,2.0,6.0,72,0.00,,,0.00,LWC V2.00 B2112,2013-01-13 11:57:00,
2013-01-13 04:02:00,11.1,4.2,30.43,West,263,4.0,7.0,73,0.00,,,0.00,LWC V2.00 B2112,2013-01-13 12:02:00,
2013-01-13 04:07:00,10.7,3.5,30.43,NW,306,7.0,7.0,72,0.00,,,0.00,LWC V2.00 B2112,2013-01-13 12:07:00,
2013-01-13 04:12:00,11.1,3.6,30.42,WNW,284,8.0,11.0,71,0.00,,,0.00,LWC V2.00 B2112,2013-01-13 12:12:00,
2013-01-13 04:17:00,11.1,4.2,30.42,WNW,301,8.0,9.0,73,0.00,,,0.00,LWC V2.00 B2112,2013-01-13 12:17:00,
2013-01-13 04:22:00,11.4,3.9,30.42,NW,312,10.0,13.0,71,0.00,,,0.00,LWC V2.00 B2112,2013-01-13 12:22:00,
2013-01-13 04:27:00,11.6,3.4,30.41,WNW,298,9.0,13.0,69,0.00,,,0.00,LWC V2.00 B2112,2013-01-13 12:27:00,
2013-01-13 04:32:00,11.1,4.2,30.41,WNW,291,9.0,9.0,73,0.00,,,0.00,LWC V2.00 B2112,2013-01-13 12:32:00,
2013-01-13 04:37:00,11.2,4.6,30.41,WNW,287,7.0,8.0,74,0.00,,,0.00,LWC V2.00 B2112,2013-01-13 12:37:00,
2013-01-13 04:42:00,11.6,4.4,30.42,WNW,288,6.0,10.0,72,0.00,,,0.00,LWC V2.00 B2112,2013-01-13 12:42:00,
2013-01-13 04:47:00,11.6,3.7,30.42,West,275,6.0,9.0,70,0.00,,,0.00,LWC V2.00 B2112,2013-01-13 12:47:00,
2013-01-13 04:52:00,11.6,3.7,30.42,WNW,296,8.0,9.0,70,0.00,,,0.00,LWC V2.00 B2112,2013-01-13 12:52:00,
2013-01-13 04:57:00,11.7,3.8,30.42,West,280,7.0,10.0,70,0.00,,,0.00,LWC V2.00 B2112,2013-01-13 12:57:00,
2013-01-13 05:02:00,11.9,4.6,30.42,West,278,7.0,10.0,72,0.00,,,0.00,LWC V2.00 B2112,2013-01-13 13:02:00,
2013-01-13 05:07:00,11.9,3.7,30.42,West,280,8.0,10.0,69,0.00,,,0.00,LWC V2.00 B2112,2013-01-13 13:07:00,
2013-01-13 05:12:00,11.9,4.0,30.42,WNW,302,6.0,8.0,70,0.00,,,0.00,LWC V2.00 B2112,2013-01-13 13:12:00,
2013-01-13 05:17:00,12.1,4.2,30.42,West,281,7.0,7.0,70,0.00,,,0.00,LWC V2.00 B2112,2013-01-13 13:17:00,
2013-01-13 05:22:00,12.3,4.7,30.42,West,268,4.0,8.0,71,0.00,,,0.00,LWC V2.00 B2112,2013-01-13 13:22:00,
2013-01-13 05:27:00,11.9,4.6,30.43,West,280,8.0,8.0,72,0.00,,,0.00,LWC V2.00 B2112,2013-01-13 13:27:00,
2013-01-13 05:32:00,11.9,3.7,30.43,WSW,248,2.0,7.0,69,0.00,,,0.00,LWC V2.00 B2112,2013-01-13 13:32:00,
2013-01-13 05:37:00,11.9,4.3,30.43,WNW,294,4.0,8.0,71,0.00,,,0.00,LWC V2.00 B2112,2013-01-13 13:37:00,
2013-01-13 05:42:00,11.9,4.6,30.43,West,272,7.0,10.0,72,0.00,,,0.00,LWC V2.00 B2112,2013-01-13 13:42:00,
2013-01-13 05:47:00,11.7,4.1,30.43,WNW,284,6.0,7.0,71,0.00,,,0.00,LWC V2.00 B2112,2013-01-13 13:47:00,
2013-01-13 05:52:00,11.9,4.3,30.43,West,275,4.0,7.0,71,0.00,,,0.00,LWC V2.00 B2112,2013-01-13 13:52:00,
2013-01-13 05:57:00,12.1,4.8,30.44,NW,309,6.0,6.0,72,0.00,,,0.00,LWC V2.00 B2112,2013-01-13 13:57:00,
2013-01-13 06:02:00,12.1,4.8,30.44,WNW,282,6.0,6.0,72,0.00,,,0.00,LWC V2.00 B2112,2013-01-13 14:02:00,
2013-01-13 06:07:00,12.1,4.5,30.44,WNW,292,6.0,6.0,71,0.00,,,0.00,LWC V2.00 B2112,2013-01-13 14:07:00,
2013-01-13 06:12:00,12.3,4.7,30.44,West,277,7.0,7.0,71,0.00,,,0.00,LWC V2.00 B2112,2013-01-13 14:12:00,
2013-01-13 06:17:00,12.3,4.7,30.44,West,271,7.0,7.0,71,0.00,,,0.00,LWC V2.00 B2112,2013-01-13 14:17:00,
2013-01-13 06:22:00,12.3,4.7,30.44,WNW,288,6.0,6.0,71,0.00,,,0.00,LWC V2.00 B2112,2013-01-13 14:22:00,
2013-01-13 06:27:00,12.3,4.7,30.45,WNW,294,2.0,2.0,71,0.00,,,0.00,LWC V2.00 B2112,2013-01-13 14:27:00,
2013-01-13 06:32:00,11.7,4.1,30.45,WNW,284,4.0,4.0,71,0.00,,,0.00,LWC V2.00 B2112,2013-01-13 14:32:00,
2013-01-13 06:37:00,11.7,3.8,30.45,West,280,1.0,1.0,70,0.00,,,0.00,LWC V2.00 B2112,2013-01-13 14:37:00,
2013-01-13 06:42:00,11.4,3.5,30.47,West,278,0.0,0.0,70,0.00,,,0.00,LWC V2.00 B2112,2013-01-13 14:42:00,
2013-01-13 06:47:00,11.2,3.4,30.47,West,280,0.0,1.0,70,0.00,,,0.00,LWC V2.00 B2112,2013-01-13 14:47:00,
2013-01-13 06:52:00,11.2,3.4,30.47,West,280,4.0,4.0,70,0.00,,,0.00,LWC V2.00 B2112,2013-01-13 14:52:00,
2013-01-13 06:57:00,11.2,3.4,30.47,West,280,2.0,2.0,70,0.00,,,0.00,LWC V2.00 B2112,2013-01-13 14:57:00,
2013-01-13 07:02:00,10.5,2.7,30.47,West,280,1.0,1.0,70,0.00,,,0.00,LWC V2.00 B2112,2013-01-13 15:02:00,
2013-01-13 07:07:00,10.7,2.9,30.47,WNW,289,4.0,4.0,70,0.00,,,0.00,LWC V2.00 B2112,2013-01-13 15:07:00,
2013-01-13 07:12:00,10.7,2.9,30.48,WNW,295,6.0,6.0,70,0.00,,,0.00,LWC V2.00 B2112,2013-01-13 15:12:00,
2013-01-13 07:17:00,10.7,2.9,30.48,WNW,299,8.0,8.0,70,0.00,,,0.00,LWC V2.00 B2112,2013-01-13 15:17:00,
2013-01-13 07:22:00,10.7,2.9,30.48,WNW,289,4.0,4.0,70,0.00,,,0.00,LWC V2.00 B2112,2013-01-13 15:22:00,
2013-01-13 07:27:00,10.7,2.9,30.48,West,278,7.0,7.0,70,0.00,,,0.00,LWC V2.00 B2112,2013-01-13 15:27:00,
2013-01-13 07:32:00,10.7,2.9,30.48,WNW,295,4.0,4.0,70,0.00,,,0.00,LWC V2.00 B2112,2013-01-13 15:32:00,
2013-01-13 07:37:00,10.7,2.9,30.48,WNW,295,4.0,4.0,70,0.00,,,0.00,LWC V2.00 B2112,2013-01-13 15:37:00,
2013-01-13 07:42:00,10.5,2.7,30.48,WNW,299,4.0,4.0,70,0.00,,,0.00,LWC V2.00 B2112,2013-01-13 15:42:00,
2013-01-13 07:47:00,10.5,2.7,30.48,WNW,299,4.0,4.0,70,0.00,,,0.00,LWC V2.00 B2112,2013-01-13 15:47:00,
2013-01-13 07:52:00,10.7,3.5,30.48,NNW,332,8.0,10.0,72,0.00,,,0.00,LWC V2.00 B2112,2013-01-13 15:52:00,
2013-01-13 07:57:00,10.5,2.7,30.49,NW,323,4.0,10.0,70,0.00,,,0.00,LWC V2.00 B2112,2013-01-13 15:57:00,
2013-01-13 08:02:00,10.5,3.0,30.49,WNW,294,9.0,9.0,71,0.00,,,0.00,LWC V2.00 B2112,2013-01-13 16:02:00,
2013-01-13 08:07:00,10.5,2.7,30.49,NW,304,8.0,13.0,70,0.00,,,0.00,LWC V2.00 B2112,2013-01-13 16:07:00,
2013-01-13 08:12:00,10.5,3.0,30.50,NW,309,11.0,11.0,71,0.00,,,0.00,LWC V2.00 B2112,2013-01-13 16:12:00,
2013-01-13 08:17:00,10.9,3.7,30.50,North,349,10.0,13.0,72,0.00,,,0.00,LWC V2.00 B2112,2013-01-13 16:17:00,
2013-01-13 08:22:00,10.5,3.3,30.50,WNW,301,10.0,11.0,72,0.00,,,0.00,LWC V2.00 B2112,2013-01-13 16:22:00,
2013-01-13 08:27:00,10.7,2.9,30.50,NW,325,9.0,13.0,70,0.00,,,0.00,LWC V2.00 B2112,2013-01-13 16:27:00,
2013-01-13 08:32:00,10.5,3.6,30.50,NW,318,6.0,10.0,73,0.00,,,0.00,LWC V2.00 B2112,2013-01-13 16:32:00,
2013-01-13 08:37:00,11.1,3.9,30.50,NW,311,4.0,10.0,72,0.00,,,0.00,LWC V2.00 B2112,2013-01-13 16:37:00,
2013-01-13 08:42:00,11.4,3.9,30.51,NW,315,6.0,11.0,71,0.00,,,0.00,LWC V2.00 B2112,2013-01-13 16:42:00,
2013-01-13 08:47:00,11.4,2.9,30.51,WNW,295,8.0,9.0,68,0.00,,,0.00,LWC V2.00 B2112,2013-01-13 16:47:00,
2013-01-13 08:52:00,11.2,3.0,30.51,WNW,292,9.0,11.0,69,0.00,,,0.00,LWC V2.00 B2112,2013-01-13 16:52:00,
2013-01-13 08:57:00,11.1,3.6,30.51,WNW,295,7.0,9.0,71,0.00,,,0.00,LWC V2.00 B2112,2013-01-13 16:57:00,
2013-01-13 09:02:00,11.2,4.0,30.51,NW,315,6.0,8.0,72,0.00,,,0.00,LWC V2.00 B2112,2013-01-13 17:02:00,
2013-01-13 09:07:00,11.6,3.4,30.51,NW,323,6.0,8.0,69,0.00,,,0.00,LWC V2.00 B2112,2013-01-13 17:07:00,
2013-01-13 09:12:00,11.9,4.0,30.50,NW,315,2.0,10.0,70,0.00,,,0.00,LWC V2.00 B2112,2013-01-13 17:12:00,
2013-01-13 09:17:00,12.3,3.5,30.50,West,278,4.0,13.0,67,0.00,,,0.00,LWC V2.00 B2112,2013-01-13 17:17:00,
2013-01-13 09:22:00,12.4,3.9,30.50,NW,312,8.0,10.0,68,0.00,,,0.00,LWC V2.00 B2112,2013-01-13 17:22:00,
2013-01-13 09:27:00,12.6,3.4,30.51,NW,312,8.0,10.0,66,0.00,,,0.00,LWC V2.00 B2112,2013-01-13 17:27:00,
2013-01-13 09:32:00,12.9,3.7,30.51,WNW,296,8.0,10.0,66,0.00,,,0.00,LWC V2.00 B2112,2013-01-13 17:32:00,
2013-01-13 09:37:00,13.1,3.9,30.51,NW,313,10.0,10.0,66,0.00,,,0.00,LWC V2.00 B2112,2013-01-13 17:37:00,
2013-01-13 09:42:00,13.3,4.4,30.50,NW,305,9.0,9.0,67,0.00,,,0.00,LWC V2.00 B2112,2013-01-13 17:42:00,
2013-01-13 09:47:00,13.3,4.1,30.50,NW,306,6.0,7.0,66,0.00,,,0.00,LWC V2.00 B2112,2013-01-13 17:47:00,
2013-01-13 09:52:00,13.5,4.6,30.50,NNW,333,2.0,7.0,67,0.00,,,0.00,LWC V2.00 B2112,2013-01-13 17:52:00,
2013-01-13 09:57:00,13.8,4.9,30.50,WNW,292,1.0,7.0,67,0.00,,,0.00,LWC V2.00 B2112,2013-01-13 17:57:00,
2013-01-13 10:02:00,14.1,5.2,30.50,WNW,291,6.0,7.0,67,0.00,,,0.00,LWC V2.00 B2112,2013-01-13 18:02:00,
2013-01-13 10:07:00,14.3,5.1,30.50,East,82,2.0,6.0,66,0.00,,,0.00,LWC V2.00 B2112,2013-01-13 18:07:00,
2013-01-13 10:12:00,14.8,5.2,30.50,North,352,4.0,7.0,65,0.00,,,0.00,LWC V2.00 B2112,2013-01-13 18:12:00,
2013-01-13 10:17:00,15.1,5.1,30.50,NNW,335,2.0,7.0,64,0.00,,,0.00,LWC V2.00 B2112,2013-01-13 18:17:00,
2013-01-13 10:22:00,15.4,5.4,30.50,NW,325,4.0,6.0,64,0.00,,,0.00,LWC V2.00 B2112,2013-01-13 18:22:00,
2013-01-13 10:27:00,15.4,5.4,30.50,NW,313,2.0,6.0,64,0.00,,,0.00,LWC V2.00 B2112,2013-01-13 18:27:00,
2013-01-13 10:32:00,15.6,6.0,30.50,NNW,329,4.0,7.0,65,0.00,,,0.00,LWC V2.00 B2112,2013-01-13 18:32:00,
2013-01-13 10:37:00,15.7,5.7,30.50,WNW,295,0.0,2.0,64,0.00,,,0.00,LWC V2.00 B2112,2013-01-13 18:37:00,
2013-01-13 10:42:00,16.1,5.8,30.49,WNW,295,1.0,4.0,63,0.00,,,0.00,LWC V2.00 B2112,2013-01-13 18:42:00,
2013-01-13 10:47:00,16.4,6.0,30.49,NW,319,4.0,4.0,63,0.00,,,0.00,LWC V2.00 B2112,2013-01-13 18:47:00,
2013-01-13 10:52:00,16.9,6.9,30.49,NNW,346,8.0,9.0,64,0.00,,,0.00,LWC V2.00 B2112,2013-01-13 18:52:00,
2013-01-13 10:57:00,16.9,5.8,30.49,NW,319,4.0,7.0,61,0.00,,,0.00,LWC V2.00 B2112,2013-01-13 18:57:00,
2013-01-13 11:02:00,16.7,6.3,30.49,WNW,299,4.0,6.0,63,0.00,,,0.00,LWC V2.00 B2112,2013-01-13 19:02:00,
2013-01-13 11:07:00,17.0,6.3,30.49,NW,311,2.0,8.0,62,0.00,,,0.00,LWC V2.00 B2112,2013-01-13 19:07:00,
2013-01-13 11:12:00,17.5,7.1,30.47,NW,323,0.0,2.0,63,0.00,,,0.00,LWC V2.00 B2112,2013-01-13 19:12:00,
2013-01-13 11:17:00,17.8,6.7,30.47,NW,313,2.0,6.0,61,0.00,,,0.00,LWC V2.00 B2112,2013-01-13 19:17:00,
2013-01-13 11:22:00,18.3,6.8,30.47,NNW,335,2.0,8.0,60,0.00,,,0.00,LWC V2.00 B2112,2013-01-13 19:22:00,
2013-01-13 11:27:00,18.6,7.1,30.47,NNW,335,1.0,2.0,60,0.00,,,0.00,LWC V2.00 B2112,2013-01-13 19:27:00,
2013-01-13 11:32:00,18.6,7.4,30.47,NNW,335,0.0,0.0,61,0.00,,,0.00,LWC V2.00 B2112,2013-01-13 19:32:00,
2013-01-13 11:37:00,18.6,7.4,30.47,WNW,296,2.0,6.0,61,0.00,,,0.00,LWC V2.00 B2112,2013-01-13 19:37:00,
2013-01-13 11:42:00,19.1,7.9,30.46,NW,319,1.0,2.0,61,0.00,,,0.00,LWC V2.00 B2112,2013-01-13 19:42:00,
2013-01-13 11:47:00,19.5,7.5,30.46,NW,319,0.0,0.0,59,0.00,,,0.00,LWC V2.00 B2112,2013-01-13 19:47:00,
2013-01-13 11:52:00,19.7,7.3,30.46,NW,319,0.0,0.0,58,0.00,,,0.00,LWC V2.00 B2112,2013-01-13 19:52:00,
2013-01-13 11:57:00,20.2,7.8,30.46,NW,319,0.0,0.0,58,0.00,,,0.00,LWC V2.00 B2112,2013-01-13 19:57:00,
2013-01-13 12:02:00,21.0,7.8,30.46,NW,319,0.0,0.0,56,0.00,,,0.00,LWC V2.00 B2112,2013-01-13 20:02:00,
2013-01-13 12:07:00,21.6,8.4,30.46,NW,319,0.0,0.0,56,0.00,,,0.00,LWC V2.00 B2112,2013-01-13 20:07:00,
2013-01-13 12:12:00,21.8,7.7,30.45,SW,222,2.0,6.0,54,0.00,,,0.00,LWC V2.00 B2112,2013-01-13 20:12:00,
2013-01-13 12:17:00,21.8,8.1,30.45,SSW,210,2.0,2.0,55,0.00,,,0.00,LWC V2.00 B2112,2013-01-13 20:17:00,
2013-01-13 12:22:00,21.8,8.5,30.45,South,186,0.0,4.0,56,0.00,,,0.00,LWC V2.00 B2112,2013-01-13 20:22:00,
2013-01-13 12:27:00,21.8,7.7,30.45,SSE,152,0.0,2.0,54,0.00,,,0.00,LWC V2.00 B2112,2013-01-13 20:27:00,
2013-01-13 12:32:00,21.8,8.1,30.45,SSE,148,0.0,0.0,55,0.00,,,0.00,LWC V2.00 B2112,2013-01-13 20:32:00,
2013-01-13 12:37:00,21.9,8.6,30.45,SSE,148,0.0,0.0,56,0.00,,,0.00,LWC V2.00 B2112,2013-01-13 20:37:00,
2013-01-13 12:42:00,22.1,8.4,30.44,SSE,148,0.0,0.0,55,0.00,,,0.00,LWC V2.00 B2112,2013-01-13 20:42:00,
2013-01-13 12:47:00,22.1,8.4,30.44,SSE,148,0.0,1.0,55,0.00,,,0.00,LWC V2.00 B2112,2013-01-13 20:47:00,
2013-01-13 12:52:00,22.2,8.1,30.44,SSE,152,0.0,2.0,54,0.00,,,0.00,LWC V2.00 B2112,2013-01-13 20:52:00,
2013-01-13 12:57:00,22.4,9.1,30.44,SSE,152,0.0,1.0,56,0.00,,,0.00,LWC V2.00 B2112,2013-01-13 20:57:00,
2013-01-13 13:02:00,22.2,9.3,30.44,SSE,152,0.0,1.0,57,0.00,,,0.00,LWC V2.00 B2112,2013-01-13 21:02:00,
2013-01-13 13:07:00,22.2,9.3,30.44,SSE,152,0.0,0.0,57,0.00,,,0.00,LWC V2.00 B2112,2013-01-13 21:07:00,
2013-01-13 13:12:00,22.5,9.6,30.45,SSE,162,2.0,2.0,57,0.00,,,0.00,LWC V2.00 B2112,2013-01-13 21:12:00,
2013-01-13 13:17:00,22.9,10.0,30.45,South,171,0.0,4.0,57,0.00,,,0.00,LWC V2.00 B2112,2013-01-13 21:17:00,
2013-01-13 13:22:00,23.2,10.3,30.45,South,171,0.0,0.0,57,0.00,,,0.00,LWC V2.00 B2112,2013-01-13 21:22:00,
2013-01-13 13:27:00,23.2,9.9,30.44,South,169,0.0,2.0,56,0.00,,,0.00,LWC V2.00 B2112,2013-01-13 21:27:00,
2013-01-13 13:32:00,23.5,10.9,30.44,South,171,1.0,1.0,58,0.00,,,0.00,LWC V2.00 B2112,2013-01-13 21:32:00,
2013-01-13 13:37:00,23.6,11.0,30.44,South,171,0.0,0.0,58,0.00,,,0.00,LWC V2.00 B2112,2013-01-13 21:37:00,
2013-01-13 13:42:00,23.6,11.0,30.44,South,171,0.0,0.0,58,0.00,,,0.00,LWC V2.00 B2112,2013-01-13 21:42:00,
2013-01-13 13:47:00,23.6,11.0,30.44,South,171,0.0,0.0,58,0.00,,,0.00,LWC V2.00 B2112,2013-01-13 21:47:00,
2013-01-13 13:52:00,23.3,11.1,30.44,South,171,0.0,1.0,59,0.00,,,0.00,LWC V2.00 B2112,2013-01-13 21:52:00,
2013-01-13 13:57:00,23.0,10.8,30.44,SSE,155,2.0,2.0,59,0.00,,,0.00,LWC V2.00 B2112,2013-01-13 21:57:00,
2013-01-13 14:02:00,22.2,10.8,30.44,SSE,155,0.0,6.0,61,0.00,,,0.00,LWC V2.00 B2112,2013-01-13 22:02:00,
2013-01-13 14:07:00,22.2,10.8,30.44,SSE,157,0.0,0.0,61,0.00,,,0.00,LWC V2.00 B2112,2013-01-13 22:07:00,
2013-01-13 14:12:00,22.5,11.1,30.44,SSE,157,0.0,0.0,61,0.00,,,0.00,LWC V2.00 B2112,2013-01-13 22:12:00,
2013-01-13 14:17:00,22.7,10.9,30.44,South,188,1.0,1.0,60,0.00,,,0.00,LWC V2.00 B2112,2013-01-13 22:17:00,
2013-01-13 14:22:00,22.7,11.3,30.44,South,188,0.0,2.0,61,0.00,,,0.00,LWC V2.00 B2112,2013-01-13 22:22:00,
2013-01-13 14:27:00,22.5,11.1,30.43,South,188,0.0,0.0,61,0.00,,,0.00,LWC V2.00 B2112,2013-01-13 22:27:00,
2013-01-13 14:32:00,22.7,11.3,30.43,South,188,0.0,0.0,61,0.00,,,0.00,LWC V2.00 B2112,2013-01-13 22:32:00,
2013-01-13 14:37:00,22.9,11.5,30.43,South,188,0.0,0.0,61,0.00,,,0.00,LWC V2.00 B2112,2013-01-13 22:37:00,
2013-01-13 14:42:00,22.5,11.5,30.43,South,188,0.0,1.0,62,0.00,,,0.00,LWC V2.00 B2112,2013-01-13 22:42:00,
2013-01-13 14:47:00,22.2,11.6,30.43,South,185,0.0,0.0,63,0.00,,,0.00,LWC V2.00 B2112,2013-01-13 22:47:00,
2013-01-13 14:52:00,22.2,11.6,30.43,South,185,0.0,0.0,63,0.00,,,0.00,LWC V2.00 B2112,2013-01-13 22:52:00,
2013-01-13 14:57:00,22.1,11.5,30.44,South,185,0.0,0.0,63,0.00,,,0.00,LWC V2.00 B2112,2013-01-13 22:57:00,
2013-01-13 15:02:00,21.9,11.6,30.44,South,185,0.0,0.0,64,0.00,,,0.00,LWC V2.00 B2112,2013-01-13 23:02:00,
2013-01-13 15:07:00,21.9,11.6,30.44,South,185,0.0,0.0,64,0.00,,,0.00,LWC V2.00 B2112,2013-01-13 23:07:00,
2013-01-13 15:12:00,21.8,11.9,30.44,South,185,0.0,0.0,65,0.00,,,0.00,LWC V2.00 B2112,2013-01-13 23:12:00,
2013-01-13 15:17:00,21.8,11.9,30.44,South,185,0.0,0.0,65,0.00,,,0.00,LWC V2.00 B2112,2013-01-13 23:17:00,
2013-01-13 15:22:00,21.6,12.0,30.44,South,185,0.0,0.0,66,0.00,,,0.00,LWC V2.00 B2112,2013-01-13 23:22:00,
2013-01-13 15:27:00,21.1,11.9,30.43,South,185,0.0,0.0,67,0.00,,,0.00,LWC V2.00 B2112,2013-01-13 23:27:00,
2013-01-13 15:32:00,21.1,11.9,30.43,South,185,0.0,0.0,67,0.00,,,0.00,LWC V2.00 B2112,2013-01-13 23:32:00,
2013-01-13 15:37:00,20.8,11.9,30.43,South,185,0.0,0.0,68,0.00,,,0.00,LWC V2.00 B2112,2013-01-13 23:37:00,
2013-01-13 15:42:00,20.5,12.0,30.44,South,185,0.0,0.0,69,0.00,,,0.00,LWC V2.00 B2112,2013-01-13 23:42:00,
2013-01-13 15:47:00,20.2,11.7,30.44,South,185,0.0,0.0,69,0.00,,,0.00,LWC V2.00 B2112,2013-01-13 23:47:00,
2013-01-13 15:52:00,19.5,11.3,30.44,South,185,0.0,0.0,70,0.00,,,0.00,LWC V2.00 B2112,2013-01-13 23:52:00,
2013-01-13 15:57:00,19.4,11.2,30.44,South,185,0.0,0.0,70,0.00,,,0.00,LWC V2.00 B2112,2013-01-13 23:57:00,
2013-01-13 16:02:00,18.9,11.7,30.44,South,185,0.0,0.0,73,0.00,,,0.00,LWC V2.00 B2112,2013-01-14 00:02:00,
2013-01-13 16:07:00,18.4,11.2,30.44,South,185,0.0,0.0,73,0.00,,,0.00,LWC V2.00 B2112,2013-01-14 00:07:00,
2013-01-13 16:12:00,18.0,10.5,30.44,South,185,0.0,0.0,72,0.00,,,0.00,LWC V2.00 B2112,2013-01-14 00:12:00,
2013-01-13 16:17:00,17.8,11.2,30.44,South,185,0.0,0.0,75,0.00,,,0.00,LWC V2.00 B2112,2013-01-14 00:17:00,
2013-01-13 16:22:00,17.5,11.0,30.44,South,185,0.0,0.0,75,0.00,,,0.00,LWC V2.00 B2112,2013-01-14 00:22:00,
2013-01-13 16:27:00,17.2,11.3,30.45,South,185,0.0,0.0,77,0.00,,,0.00,LWC V2.00 B2112,2013-01-14 00:27:00,
2013-01-13 16:32:00,16.7,10.5,30.45,South,185,0.0,0.0,76,0.00,,,0.00,LWC V2.00 B2112,2013-01-14 00:32:00,
2013-01-13 16:37:00,16.4,10.5,30.45,South,185,0.0,0.0,77,0.00,,,0.00,LWC V2.00 B2112,2013-01-14 00:37:00,
2013-01-13 16:42:00,16.1,10.5,30.45,South,185,0.0,0.0,78,0.00,,,0.00,LWC V2.00 B2112,2013-01-14 00:42:00,
2013-01-13 16:47:00,15.7,10.1,30.45,South,185,0.0,0.0,78,0.00,,,0.00,LWC V2.00 B2112,2013-01-14 00:47:00,
2013-01-13 16:52:00,15.4,9.5,30.45,South,185,0.0,0.0,77,0.00,,,0.00,LWC V2.00 B2112,2013-01-14 00:52:00,
2013-01-13 16:57:00,15.2,9.6,30.46,South,185,0.0,0.0,78,0.00,,,0.00,LWC V2.00 B2112,2013-01-14 00:57:00,
2013-01-13 17:02:00,14.9,10.1,30.46,South,185,0.0,0.0,81,0.00,,,0.00,LWC V2.00 B2112,2013-01-14 01:02:00,
2013-01-13 17:07:00,14.6,9.6,30.46,South,185,0.0,0.0,80,0.00,,,0.00,LWC V2.00 B2112,2013-01-14 01:07:00,
2013-01-13 17:12:00,14.4,9.4,30.46,South,185,0.0,0.0,80,0.00,,,0.00,LWC V2.00 B2112,2013-01-14 01:12:00,
2013-01-13 17:17:00,14.3,9.3,30.46,South,185,0.0,0.0,80,0.00,,,0.00,LWC V2.00 B2112,2013-01-14 01:17:00,
2013-01-13 17:22:00,14.1,9.1,30.46,South,185,0.0,0.0,80,0.00,,,0.00,LWC V2.00 B2112,2013-01-14 01:22:00,
2013-01-13 17:27:00,14.1,9.4,30.46,South,185,0.0,0.0,81,0.00,,,0.00,LWC V2.00 B2112,2013-01-14 01:27:00,
2013-01-13 17:32:00,14.0,9.0,30.46,South,185,0.0,0.0,80,0.00,,,0.00,LWC V2.00 B2112,2013-01-14 01:32:00,
2013-01-13 17:37:00,13.6,8.3,30.46,South,185,0.0,0.0,79,0.00,,,0.00,LWC V2.00 B2112,2013-01-14 01:37:00,
2013-01-13 17:42:00,13.5,8.8,30.47,South,185,0.0,0.0,81,0.00,,,0.00,LWC V2.00 B2112,2013-01-14 01:42:00,
2013-01-13 17:47:00,13.3,8.3,30.47,South,185,0.0,0.0,80,0.00,,,0.00,LWC V2.00 B2112,2013-01-14 01:47:00,
2013-01-13 17:53:00,13.3,8.6,30.47,South,185,0.0,0.0,81,0.00,,,0.00,LWC V2.00 B2112,2013-01-14 01:53:00,
2013-01-13 17:58:00,13.3,8.6,30.47,South,185,0.0,0.0,81,0.00,,,0.00,LWC V2.00 B2112,2013-01-14 01:58:00,
2013-01-13 18:03:00,13.3,8.6,30.47,South,185,0.0,0.0,81,0.00,,,0.00,LWC V2.00 B2112,2013-01-14 02:03:00,
2013-01-13 18:08:00,13.3,8.3,30.47,South,185,0.0,0.0,80,0.00,,,0.00,LWC V2.00 B2112,2013-01-14 02:08:00,
2013-01-13 18:13:00,13.5,8.8,30.46,South,185,0.0,2.0,81,0.00,,,0.00,LWC V2.00 B2112,2013-01-14 02:13:00,
2013-01-13 18:18:00,14.0,9.5,30.46,WSW,237,2.0,2.0,82,0.00,,,0.00,LWC V2.00 B2112,2013-01-14 02:18:00,
2013-01-13 18:23:00,14.4,9.4,30.46,WNW,299,2.0,6.0,80,0.00,,,0.00,LWC V2.00 B2112,2013-01-14 02:23:00,
2013-01-13 18:28:00,14.4,8.8,30.45,WNW,299,0.0,0.0,78,0.00,,,0.00,LWC V2.00 B2112,2013-01-14 02:28:00,
2013-01-13 18:33:00,14.3,9.0,30.45,WNW,299,0.0,0.0,79,0.00,,,0.00,LWC V2.00 B2112,2013-01-14 02:33:00,
2013-01-13 18:38:00,14.3,9.3,30.45,WNW,299,1.0,2.0,80,0.00,,,0.00,LWC V2.00 B2112,2013-01-14 02:38:00,
2013-01-13 18:43:00,14.6,9.6,30.45,WNW,299,0.0,2.0,80,0.00,,,0.00,LWC V2.00 B2112,2013-01-14 02:43:00,
2013-01-13 18:48:00,14.8,9.8,30.45,WNW,299,1.0,2.0,80,0.00,,,0.00,LWC V2.00 B2112,2013-01-14 02:48:00,
2013-01-13 18:53:00,15.1,9.2,30.45,WNW,299,0.0,2.0,77,0.00,,,0.00,LWC V2.00 B2112,2013-01-14 02:53:00,
2013-01-13 18:58:00,15.2,9.6,30.45,WNW,299,2.0,4.0,78,0.00,,,0.00,LWC V2.00 B2112,2013-01-14 02:58:00,
2013-01-13 19:03:00,15.6,9.7,30.45,WNW,299,2.0,2.0,77,0.00,,,0.00,LWC V2.00 B2112,2013-01-14 03:03:00,
2013-01-13 19:08:00,15.4,9.5,30.45,WNW,299,0.0,0.0,77,0.00,,,0.00,LWC V2.00 B2112,2013-01-14 03:08:00,
2013-01-13 19:13:00,15.4,9.5,30.45,WNW,299,0.0,0.0,77,0.00,,,0.00,LWC V2.00 B2112,2013-01-14 03:13:00,
2013-01-13 19:18:00,15.4,9.5,30.45,WNW,299,0.0,1.0,77,0.00,,,0.00,LWC V2.00 B2112,2013-01-14 03:18:00,
2013-01-13 19:23:00,15.6,9.7,30.45,WNW,299,0.0,0.0,77,0.00,,,0.00,LWC V2.00 B2112,2013-01-14 03:23:00,
2013-01-13 19:28:00,15.7,9.8,30.45,WNW,299,0.0,0.0,77,0.00,,,0.00,LWC V2.00 B2112,2013-01-14 03:28:00,
2013-01-13 19:33:00,15.6,9.7,30.45,WNW,299,0.0,2.0,77,0.00,,,0.00,LWC V2.00 B2112,2013-01-14 03:33:00,
2013-01-13 19:38:00,15.6,9.4,30.45,WNW,299,0.0,0.0,76,0.00,,,0.00,LWC V2.00 B2112,2013-01-14 03:38:00,
2013-01-13 19:43:00,15.6,9.4,30.45,WNW,299,0.0,0.0,76,0.00,,,0.00,LWC V2.00 B2112,2013-01-14 03:43:00,
2013-01-13 19:48:00,15.4,9.5,30.45,WNW,299,0.0,0.0,77,0.00,,,0.00,LWC V2.00 B2112,2013-01-14 03:48:00,
2013-01-13 19:53:00,15.2,9.3,30.45,WNW,299,0.0,0.0,77,0.00,,,0.00,LWC V2.00 B2112,2013-01-14 03:53:00,
2013-01-13 19:58:00,15.4,9.5,30.46,WNW,299,0.0,0.0,77,0.00,,,0.00,LWC V2.00 B2112,2013-01-14 03:58:00,
2013-01-13 20:03:00,15.4,9.5,30.46,WNW,299,0.0,0.0,77,0.00,,,0.00,LWC V2.00 B2112,2013-01-14 04:03:00,
2013-01-13 20:08:00,15.2,9.3,30.46,WNW,299,0.0,0.0,77,0.00,,,0.00,LWC V2.00 B2112,2013-01-14 04:08:00,
2013-01-13 20:13:00,15.4,9.5,30.45,WNW,299,0.0,0.0,77,0.00,,,0.00,LWC V2.00 B2112,2013-01-14 04:13:00,
2013-01-13 20:18:00,15.6,9.4,30.45,WNW,299,0.0,0.0,76,0.00,,,0.00,LWC V2.00 B2112,2013-01-14 04:18:00,
2013-01-13 20:23:00,15.7,9.8,30.45,WNW,299,2.0,2.0,77,0.00,,,0.00,LWC V2.00 B2112,2013-01-14 04:23:00,
2013-01-13 20:28:00,16.1,9.6,30.46,WNW,299,0.0,2.0,75,0.00,,,0.00,LWC V2.00 B2112,2013-01-14 04:28:00,
2013-01-13 20:33:00,16.2,10.0,30.46,WNW,299,0.0,0.0,76,0.00,,,0.00,LWC V2.00 B2112,2013-01-14 04:33:00,
2013-01-13 20:38:00,16.1,9.9,30.46,WNW,299,0.0,0.0,76,0.00,,,0.00,LWC V2.00 B2112,2013-01-14 04:38:00,
2013-01-13 20:43:00,16.1,9.9,30.46,WNW,299,0.0,0.0,76,0.00,,,0.00,LWC V2.00 B2112,2013-01-14 04:43:00,
2013-01-13 20:48:00,16.2,9.7,30.46,WNW,299,0.0,0.0,75,0.00,,,0.00,LWC V2.00 B2112,2013-01-14 04:48:00,
2013-01-13 20:53:00,16.2,9.7,30.46,WNW,299,2.0,2.0,75,0.00,,,0.00,LWC V2.00 B2112,2013-01-14 04:53:00,
2013-01-13 20:58:00,16.7,10.2,30.46,WNW,299,0.0,2.0,75,0.00,,,0.00,LWC V2.00 B2112,2013-01-14 04:58:00,
2013-01-13 21:00:00,16.7,10.2,30.46,WNW,299,0.0,0.0,75,0.00,,,0.00,LWC V2.00 B2112,2013-01-14 05:00:00,
2013-01-13 21:05:00,16.9,10.1,30.46,WNW,299,0.0,0.0,74,0.00,,,0.00,LWC V2.00 B2112,2013-01-14 05:05:00,
2013-01-13 21:10:00,16.7,9.9,30.46,WNW,299,0.0,0.0,74,0.00,,,0.00,LWC V2.00 B2112,2013-01-14 05:10:00,
2013-01-13 21:15:00,16.7,10.2,30.46,WNW,299,0.0,0.0,75,0.00,,,0.00,LWC V2.00 B2112,2013-01-14 05:15:00,
2013-01-13 21:20:00,16.7,9.9,30.46,WNW,299,0.0,0.0,74,0.00,,,0.00,LWC V2.00 B2112,2013-01-14 05:20:00,
2013-01-13 21:25:00,17.0,9.9,30.45,WNW,299,0.0,1.0,73,0.00,,,0.00,LWC V2.00 B2112,2013-01-14 05:25:00,
2013-01-13 21:30:00,17.2,10.4,30.45,WNW,299,1.0,4.0,74,0.00,,,0.00,LWC V2.00 B2112,2013-01-14 05:30:00,
2013-01-13 21:35:00,17.2,10.1,30.45,WNW,282,4.0,6.0,73,0.00,,,0.00,LWC V2.00 B2112,2013-01-14 05:35:00,
2013-01-13 21:40:00,17.3,10.2,30.45,WNW,282,2.0,2.0,73,0.00,,,0.00,LWC V2.00 B2112,2013-01-14 05:40:00,
2013-01-13 21:45:00,17.3,10.5,30.45,WNW,282,4.0,4.0,74,0.00,,,0.00,LWC V2.00 B2112,2013-01-14 05:45:00,
2013-01-13 21:50:00,17.3,10.5,30.45,NW,305,0.0,2.0,74,0.00,,,0.00,LWC V2.00 B2112,2013-01-14 05:50:00,
2013-01-13 21:55:00,17.3,10.5,30.45,NW,305,0.0,0.0,74,0.00,,,0.00,LWC V2.00 B2112,2013-01-14 05:55:00,
2013-01-13 22:00:00,17.3,10.5,30.45,NW,305,0.0,0.0,74,0.00,,,0.00,LWC V2.00 B2112,2013-01-14 06:00:00,
2013-01-13 22:05:00,17.3,10.5,30.45,NW,305,0.0,0.0,74,0.00,,,0.00,LWC V2.00 B2112,2013-01-14 06:05:00,
2013-01-13 22:10:00,17.3,10.5,30.45,NW,305,0.0,1.0,74,0.00,,,0.00,LWC V2.00 B2112,2013-01-14 06:10:00,
2013-01-13 22:15:00,17.5,10.3,30.45,NW,305,0.0,0.0,73,0.00,,,0.00,LWC V2.00 B2112,2013-01-14 06:15:00,
2013-01-13 22:20:00,17.5,10.7,30.45,NW,305,0.0,0.0,74,0.00,,,0.00,LWC V2.00 B2112,2013-01-14 06:20:00,
2013-01-13 22:25:00,17.5,10.7,30.45,NW,305,0.0,0.0,74,0.00,,,0.00,LWC V2.00 B2112,2013-01-14 06:25:00,
2013-01-13 22:30:00,17.5,10.7,30.45,NW,305,0.0,0.0,74,0.00,,,0.00,LWC V2.00 B2112,2013-01-14 06:30:00,
2013-01-13 22:35:00,17.5,10.7,30.45,NW,305,0.0,0.0,74,0.00,,,0.00,LWC V2.00 B2112,2013-01-14 06:35:00,
2013-01-13 22:40:00,17.5,11.0,30.44,NW,305,0.0,2.0,75,0.00,,,0.00,LWC V2.00 B2112,2013-01-14 06:40:00,
2013-01-13 22:45:00,17.7,11.1,30.44,NW,305,0.0,0.0,75,0.00,,,0.00,LWC V2.00 B2112,2013-01-14 06:45:00,
2013-01-13 22:51:00,17.8,10.6,30.44,NW,305,0.0,0.0,73,0.00,,,0.00,LWC V2.00 B2112,2013-01-14 06:51:00,
2013-01-13 22:56:00,18.0,11.1,30.44,NW,305,0.0,0.0,74,0.00,,,0.00,LWC V2.00 B2112,2013-01-14 06:56:00,
2013-01-13 23:01:00,18.0,10.8,30.44,NW,305,0.0,0.0,73,0.00,,,0.00,LWC V2.00 B2112,2013-01-14 07:01:00,
2013-01-13 23:06:00,18.1,10.9,30.44,NW,305,0.0,0.0,73,0.00,,,0.00,LWC V2.00 B2112,2013-01-14 07:06:00,
2013-01-13 23:11:00,18.1,10.9,30.44,North,7,0.0,0.0,73,0.00,,,0.00,LWC V2.00 B2112,2013-01-14 07:11:00,
2013-01-13 23:16:00,18.1,11.2,30.44,North,7,0.0,0.0,74,0.00,,,0.00,LWC V2.00 B2112,2013-01-14 07:16:00,
2013-01-13 23:21:00,18.1,10.9,30.44,North,7,0.0,0.0,73,0.00,,,0.00,LWC V2.00 B2112,2013-01-14 07:21:00,
2013-01-13 23:26:00,18.0,11.4,30.43,North,7,0.0,0.0,75,0.00,,,0.00,LWC V2.00 B2112,2013-01-14 07:26:00,
2013-01-13 23:31:00,18.0,11.1,30.43,North,7,0.0,0.0,74,0.00,,,0.00,LWC V2.00 B2112,2013-01-14 07:31:00,
2013-01-13 23:36:00,18.1,11.2,30.43,North,7,0.0,0.0,74,0.00,,,0.00,LWC V2.00 B2112,2013-01-14 07:36:00,
2013-01-13 23:41:00,18.3,11.1,30.43,North,7,0.0,0.0,73,0.00,,,0.00,LWC V2.00 B2112,2013-01-14 07:41:00,
2013-01-13 23:46:00,18.3,11.4,30.43,North,7,0.0,0.0,74,0.00,,,0.00,LWC V2.00 B2112,2013-01-14 07:46:00,
2013-01-13 23:51:00,18.3,11.4,30.43,North,7,0.0,0.0,74,0.00,,,0.00,LWC V2.00 B2112,2013-01-14 07:51:00,
2013-01-13 23:56:00,18.1,11.5,30.43,North,7,0.0,0.0,75,0.00,,,0.00,LWC V2.00 B2112,2013-01-14 07:56:00,